Temp
9 9 9 9 8 8 8 8 8 8 8 8 8 9 9 10 15 14 19 23 23 22 23 23 26 27 27 29 30 31 29 30 31 32 34 37 37 37 37 36 36 36 35 36 35
9 9 9 9 8 8 8 8 8 8 8 8 8 9 10 10 12 18 22 23 23 23 23 25 28 28 28 29 30 30 28 30 33 34 34 36 36 36 35 35 34 34 35 35 35
10 9 9 9 9 8 8 8 8 8 8 8 9 10 10 12 18 25 25 23 23 23 23 27 29 30 28 30 30 30 29 32 33 35 34 33 34 35 34 34 34 34 35 36 36
12 12 10 9 9 9 8 8 8 8 8 8 8 10 11 12 25 24 24 23 23 22 23 27 29 29 29 29 31 30 31 32 32 34 33 32 33 32 33 33 35 35 35 35 35
12 12 11 12 11 9 9 9 8 8 8 8 9 9 12 20 25 23 23 22 22 21 25 28 29 29 29 30 31 31 31 32 33 33 33 33 32 32 33 33 34 34 33 34 33
12 12 11 12 12 12 10 11 11 11 10 10 9 10 14 22 26 23 23 22 24 24 27 29 30 31 31 31 31 32 32 32 32 33 32 32 31 32 32 33 33 33 32 33 33
12 12 12 12 12 12 12 12 14 13 14 12 10 12 19 24 27 24 24 24 25 26 28 29 30 31 31 30 32 32 31 31 31 32 32 32 31 31 32 33 33 32 32 32 32
11 12 12 13 13 13 13 13 15 15 15 14 11 13 20 26 26 27 26 26 27 27 29 29 29 29 30 31 31 30 30 29 31 32 32 31 29 32 34 33 32 32 32 32 33
11 11 12 13 13 13 14 15 16 15 15 14 12 17 23 24 26 26 27 28 28 28 28 28 28 28 29 28 28 29 28 30 31 33 33 32 30 32 33 32 32 32 32 32 32
11 11 11 12 13 13 14 13 13 15 14 14 16 20 23 26 27 26 27 27 28 28 28 27 27 27 28 28 27 29 30 30 31 33 32 31 30 32 33 32 31 31 31 32 32
11 11 10 11 12 13 14 13 16 17 16 21 24 24 28 28 27 27 27 27 28 27 26 27 26 26 28 29 30 30 30 30 32 33 32 31 30 31 32 33 32 32 32 31 31
11 11 11 11 12 11 10 19 23 24 22 22 22 24 25 27 26 27 27 26 26 25 27 27 26 28 30 30 30 30 29 29 30 31 31 30 30 31 31 32 32 32 32 32 32
11 11 11 10 9 10 14 20 22 23 22 25 26 24 25 26 25 26 27 27 26 26 27 26 28 30 29 29 29 29 28 28 29 30 31 30 29 29 31 31 32 32 32 32 32
11 11 11 9 10 18 20 21 23 24 21 25 25 26 26 26 24 27 27 26 26 26 27 27 29 29 29 28 28 27 30 29 28 28 27 30 27 30 31 31 32 32 32 32 31
11 11 10 7 11 19 23 23 24 23 21 26 26 27 27 25 26 25 27 26 24 25 26 25 27 27 28 28 29 28 29 29 29 28 28 28 27 28 31 30 31 32 32 31 30
11 12 9 13 10 17 20 22 23 22 22 27 27 26 25 25 27 27 26 26 26 25 26 25 27 26 26 27 27 29 28 28 28 27 25 27 27 28 30 31 32 33 32 31 30
11 11 10 12 19 20 21 23 22 22 28 27 27 27 26 26 27 26 25 24 24 23 23 26 26 27 28 26 27 27 25 23 23 25 25 28 28 29 31 32 31 31 30 30 29
12 14 15 15 19 20 21 22 21 26 27 27 27 28 27 27 27 27 26 25 26 25 25 24 24 27 28 27 26 27 26 25 23 24 26 28 26 28 31 31 30 31 30 29 28
13 17 17 19 19 20 21 22 23 25 26 25 26 26 27 27 26 26 26 25 26 25 23 23 24 27 27 27 27 26 25 27 23 24 23 25 27 29 30 29 30 30 29 27 27
10 17 23 20 20 21 21 22 25 25 25 25 24 26 24 24 23 25 24 25 24 25 25 24 22 25 26 26 26 26 26 22 22 19 21 25 26 26 26 26 25 27 27 27 27
12 20 22 22 20 22 22 25 25 25 24 24 24 24 24 23 23 22 22 24 23 24 24 23 21 21 23 23 23 24 24 24 23 22 18 20 23 27 25 26 26 27 27 27 27
18 21 22 22 21 23 23 24 17 24 24 24 24 23 23 22 22 22 22 23 22 22 21 20 20 19 21 23 24 24 23 22 19 19 21 20 19 25 25 26 26 25 26 26 26
18 22 22 22 20 21 22 24 24 23 23 23 23 23 22 21 19 22 21 22 20 21 19 19 18 18 20 23 22 21 23 23 20 18 18 18 21 25 24 21 22 23 23 24 24
17 21 23 23 23 21 22 23 23 23 22 22 21 22 21 21 21 20 21 20 21 20 17 16 18 16 16 19 19 18 19 20 19 16 19 20 21 23 24 22 22 23 23 23 23
17 20 19 21 21 21 21 22 22 22 22 21 21 21 20 18 20 20 20 21 20 17 18 17 14 15 17 18 18 19 20 20 19 20 19 20 21 23 23 23 24 24 24 23 24
17 18 18 20 20 20 17 21 21 21 20 20 19 20 19 17 17 17 17 18 18 19 16 15 13 14 15 17 18 18 20 20 21 21 22 21 22 24 24 24 24 24 23 23 23
14 17 17 18 20 20 21 20 19 19 19 20 19 18 18 18 17 17 18 18 17 16 16 13 12 15 15 18 18 16 20 21 21 22 22 21 23 24 23 23 22 22 23 23 22
Height
795 791 788 785 782 780 778 776 775 773 772 771 769 768 767 764 762 763 758 751 751 751 753 753 752 752 753 749 745 741 761 762 752 746 732 704 709 701 702 715 712 717 721 721 725
794 791 787 784 780 778 776 774 773 772 770 769 767 767 765 764 763 755 746 747 748 750 752 750 746 747 749 746 743 745 761 751 727 723 724 711 709 709 715 720 723 724 721 721 725
794 790 787 784 780 777 775 774 771 770 769 768 766 764 764 763 758 734 733 739 744 747 748 744 740 740 746 739 739 742 751 732 727 716 715 724 720 713 721 728 721 725 721 718 720
794 790 786 783 779 776 773 772 770 769 768 766 765 763 762 765 746 733 734 739 742 745 747 742 737 739 744 744 731 744 733 729 724 715 721 730 723 727 727 726 716 717 718 717 717
794 790 786 782 778 775 772 770 768 767 766 765 764 763 763 756 736 734 735 738 740 744 742 737 737 736 741 732 727 732 730 724 719 718 719 722 728 727 726 719 718 720 720 720 720
793 790 786 782 778 774 770 768 766 765 765 764 763 763 763 751 730 732 736 738 740 741 737 733 730 726 728 725 724 718 721 721 719 718 721 726 727 725 722 716 718 719 724 722 721
793 788 785 781 777 773 769 766 764 763 763 763 763 765 757 738 729 731 735 736 737 736 733 731 726 725 723 730 714 715 727 723 721 718 723 720 730 727 716 712 714 718 718 719 718
792 788 783 779 775 771 766 762 761 761 761 761 762 764 746 729 728 730 732 733 733 733 731 728 728 728 726 719 718 728 727 743 720 714 714 721 740 716 701 704 712 715 715 714 713
791 787 782 777 773 769 763 758 758 759 759 760 762 760 741 728 729 729 729 728 730 731 732 731 731 733 729 737 739 732 746 732 720 697 700 713 728 710 699 705 712 712 712 713 712
788 785 781 775 771 767 763 759 757 757 758 761 759 756 732 723 720 725 727 727 727 730 732 734 735 739 735 735 754 738 730 721 719 698 700 715 719 709 700 703 709 712 711 711 711
784 782 778 773 770 765 762 761 760 757 755 740 731 727 715 717 720 721 724 726 724 730 742 732 742 743 731 722 722 719 717 718 704 692 702 710 714 707 699 699 702 703 704 706 707
782 776 773 769 764 762 762 754 738 738 738 728 728 725 719 717 720 719 721 728 730 738 731 737 740 726 716 714 717 716 723 724 713 701 707 710 714 707 702 700 696 698 700 700 701
778 773 767 760 755 752 750 742 738 737 738 716 711 720 719 721 724 719 719 722 727 734 729 734 722 708 716 721 723 719 727 728 726 711 704 709 719 715 700 694 691 689 690 693 696
774 769 764 755 753 743 741 736 734 735 743 716 713 711 712 718 726 716 716 723 726 730 723 722 709 712 715 723 722 732 710 717 722 728 738 708 732 707 692 687 682 684 685 689 692
770 765 760 758 749 740 731 733 732 735 750 709 707 705 705 719 711 717 713 723 733 731 728 730 721 720 719 717 709 721 708 713 714 720 723 720 727 710 689 692 682 675 676 681 687
766 761 755 752 750 737 735 736 735 743 738 704 700 709 715 713 708 707 715 718 721 728 725 727 714 722 722 713 712 703 713 715 716 723 737 723 721 712 695 681 671 661 665 674 685
760 755 752 750 739 736 735 734 741 739 693 702 700 702 705 710 708 713 722 727 733 743 739 723 719 711 712 724 715 716 735 755 752 740 732 702 707 693 672 664 668 669 674 678 687
754 748 744 743 739 738 736 736 744 708 701 695 694 694 702 699 702 705 715 721 718 722 726 729 737 710 705 714 720 717 721 737 752 737 719 695 708 698 666 668 668 666 672 679 688
750 743 740 735 737 738 735 734 726 711 706 710 705 705 701 699 704 705 708 715 711 718 736 733 725 700 706 704 708 716 722 709 730 727 734 721 698 678 667 669 664 671 676 685 691
753 744 731 734 735 735 735 727 709 705 709 711 720 703 720 716 723 716 723 715 718 714 715 723 735 714 710 706 706 712 710 738 739 763 747 715 704 701 689 690 691 687 685 686 689
752 736 730 732 734 730 729 709 705 707 715 718 716 717 716 723 724 729 733 719 721 722 718 727 736 737 725 726 725 718 722 723 730 739 762 744 718 680 698 690 691 689 686 688 688
744 734 729 731 735 720 716 712 720 712 712 715 715 719 722 726 728 728 728 724 728 730 737 740 742 747 737 718 712 715 720 725 747 747 733 737 731 692 690 688 691 691 686 686 686
744 726 726 729 736 727 716 707 710 716 718 717 719 723 725 735 743 728 729 727 733 734 742 746 750 752 732 711 719 725 718 715 730 739 740 744 716 690 692 705 701 699 697 691 692
749 728 719 723 718 724 717 714 713 717 724 722 727 727 732 734 733 738 733 733 732 735 747 750 750 758 762 738 737 744 734 729 736 749 733 720 711 701 696 701 703 695 697 694 694
746 732 733 726 724 728 725 722 721 721 722 726 727 728 735 746 736 736 735 731 734 744 745 751 763 759 750 744 740 733 727 723 728 723 728 713 708 700 695 692 689 686 685 686 687
749 744 739 733 732 732 735 723 725 725 734 732 739 734 737 750 751 751 746 744 744 736 750 754 762 759 752 743 735 729 721 715 708 704 701 701 696 686 683 680 680 677 681 683 683
758 750 749 739 731 734 725 727 733 737 734 733 738 742 743 742 745 746 743 741 746 749 749 760 765 752 747 732 727 731 706 701 696 691 691 695 686 677 679 678 681 681 681 681 681
Wind_Speed
22 21 18 17 14 13 12 12 12 12 12 12 13 13 14 14 13 12 14 13 11 25 12 11 12 15 16 15 17 12 12 14 18 19 20 20 11 10 11 13 7 2 10 5 7
22 22 21 18 15 14 12 12 12 12 12 12 12 13 13 13 15 22 23 22 17 16 12 14 12 13 13 14 13 15 10 19 17 18 14 14 9 14 5 17 10 10 13 18 12
26 23 22 20 17 14 13 12 12 12 12 12 12 12 11 9 11 6 13 27 22 17 18 18 16 14 15 16 17 15 17 17 18 20 3 12 14 6 11 12 10 11 15 15 16
25 26 25 21 20 16 13 12 12 11 11 12 12 11 10 7 2 5 9 19 16 13 16 19 14 14 15 17 17 19 21 17 20 17 2 10 13 12 12 15 13 12 14 11 12
22 24 25 26 24 19 15 13 12 11 11 11 10 10 6 8 10 7 9 12 13 13 18 15 15 15 17 17 17 18 18 18 18 16 12 10 14 14 16 13 11 15 14 13 12
21 23 24 25 25 26 19 14 12 11 9 7 8 7 6 12 7 10 12 12 13 15 16 17 13 14 15 18 18 14 19 16 18 14 14 16 16 16 17 16 14 12 12 15 10
22 23 24 25 26 26 24 17 13 11 9 7 7 5 11 17 3 11 13 12 14 16 12 16 18 13 10 13 18 13 17 13 15 17 16 16 19 18 17 17 14 14 13 13 13
21 23 23 25 27 27 30 20 11 11 10 7 5 6 8 6 18 13 15 15 15 13 16 10 6 11 16 13 7 12 14 16 19 22 21 18 18 18 18 21 18 11 16 12 13
23 24 25 25 27 28 30 11 7 10 9 5 6 9 8 4 10 15 16 16 11 10 8 5 6 12 14 13 13 14 15 20 20 20 17 18 16 18 17 3 7 11 10 13 9
23 24 26 26 26 27 25 8 5 3 2 7 14 9 11 11 12 15 17 15 11 10 10 10 8 12 13 13 13 17 19 17 16 14 13 13 14 15 13 14 11 13 13 11 12
25 26 27 29 29 24 21 8 4 5 9 9 4 10 5 5 1 12 16 14 12 9 13 14 11 14 17 17 18 20 21 16 15 9 13 13 12 15 13 16 15 15 12 13 13
29 29 29 36 32 23 11 7 10 6 8 20 21 18 22 6 6 11 19 14 14 15 15 14 16 16 17 17 17 18 17 18 16 19 14 15 17 17 18 18 16 14 13 13 12
30 33 33 38 29 16 18 19 14 12 7 15 20 19 15 12 10 9 15 16 13 16 16 16 16 18 14 15 18 17 15 16 18 17 18 15 16 17 19 19 19 17 14 13 11
29 33 38 34 12 9 16 19 17 7 5 10 10 7 11 9 9 17 16 13 15 16 16 15 18 18 12 12 13 18 16 17 17 16 13 15 15 17 16 19 18 20 15 11 10
31 31 35 19 16 7 9 1 3 3 5 10 11 12 15 13 10 16 19 14 16 16 10 14 15 18 15 17 17 15 15 16 17 15 17 19 12 15 17 17 18 16 17 13 7
33 36 26 5 9 16 9 4 6 6 5 9 9 11 13 16 6 17 15 15 15 17 16 16 17 15 14 14 17 15 13 15 15 14 15 18 18 16 17 18 17 15 16 12 12
38 35 14 11 7 5 10 8 5 5 9 5 9 14 16 12 13 11 15 15 15 12 16 19 20 18 16 14 16 9 5 8 12 13 15 20 17 16 17 7 4 8 9 10 10
44 15 9 12 9 6 9 8 7 12 5 4 4 4 10 11 10 13 17 14 19 18 16 14 12 16 17 21 18 18 16 12 19 14 17 19 16 11 6 6 9 5 8 9 9
33 15 10 5 9 7 8 9 3 5 8 8 10 8 10 4 4 6 9 7 9 5 12 14 17 12 10 15 15 14 15 12 10 17 14 15 22 20 18 13 13 9 7 8 4
18 16 6 4 6 7 7 12 5 4 5 6 10 7 5 3 4 3 2 1 5 7 5 12 15 12 15 13 16 15 12 8 5 6 17 15 13 11 9 9 2 8 10 7 9
5 4 7 6 6 6 9 5 4 9 5 5 8 8 9 4 5 2 5 6 9 10 9 9 8 11 15 14 16 14 14 13 14 12 5 10 9 3 5 8 2 6 6 7 7
8 3 8 7 6 7 8 8 3 5 0 5 4 6 7 7 5 6 5 4 3 8 8 8 4 8 16 22 18 17 19 13 9 9 12 11 9 14 12 9 8 12 9 9 10
5 7 7 8 5 4 10 3 3 3 4 5 4 2 6 6 4 5 2 6 6 3 4 2 2 7 10 14 7 8 14 13 13 8 17 13 13 11 7 15 22 15 16 11 15
5 3 5 6 9 8 8 3 4 7 3 3 5 4 8 8 7 5 6 3 2 3 8 3 9 10 9 18 12 12 13 15 10 5 12 18 22 18 15 6 13 14 12 13 14
4 2 3 3 2 7 4 8 4 3 3 3 4 3 5 4 8 10 13 9 4 10 6 3 7 11 16 20 22 24 24 21 21 22 20 20 23 20 18 17 14 13 15 15 17
4 5 6 9 5 6 4 5 3 3 1 3 2 6 4 7 11 14 16 13 9 7 6 3 3 9 15 18 21 25 25 26 27 24 24 26 26 19 18 16 19 13 8 9 14
14 9 4 7 6 5 1 5 4 2 6 3 4 5 8 8 6 10 14 14 12 11 11 6 3 7 15 16 18 15 19 23 22 22 22 21 21 13 14 10 10 9 9 12 14
Wind_Direction
357 353 344 337 325 316 309 303 298 297 295 297 301 303 303 305 296 266 247 223 257 234 270 268 226 223 228 246 229 238 247 246 247 269 277 273 278 222 228 252 277 117 256 324 96
359 359 351 343 336 323 312 304 299 291 293 295 296 297 302 312 297 265 241 239 257 216 226 232 217 215 215 218 235 219 226 248 260 243 261 306 275 282 214 253 229 253 274 282 262
3 357 359 351 341 331 319 306 300 297 295 294 295 299 306 332 277 261 228 221 232 234 224 236 240 205 228 229 220 221 242 245 242 272 277 303 304 303 273 270 241 257 264 237 250
1 2 0 355 351 336 325 314 305 298 293 293 297 306 312 293 277 94 146 194 220 213 213 240 239 229 230 228 229 227 241 248 268 275 195 261 274 280 264 266 274 286 283 290 271
359 359 0 359 1 348 328 318 306 296 292 287 295 310 311 232 256 141 158 182 188 190 212 228 223 232 227 234 233 233 249 248 265 265 276 261 267 261 251 256 266 261 282 277 278
354 355 356 355 355 358 343 317 307 296 291 295 304 311 260 259 95 142 154 161 175 194 219 232 228 231 250 242 252 234 247 252 265 250 255 251 253 253 251 254 237 243 241 262 264
349 350 349 351 350 349 345 321 299 297 292 297 299 299 265 245 207 149 179 189 207 206 226 229 247 279 243 272 265 261 260 257 253 262 245 248 251 251 254 258 223 233 229 240 233
345 345 345 344 344 344 339 319 282 289 289 289 285 275 266 251 239 236 199 208 213 216 247 248 247 278 267 282 266 269 246 257 246 231 228 232 256 257 256 223 227 233 254 252 251
342 342 341 342 341 338 338 323 284 286 272 245 268 216 259 170 215 223 213 219 199 219 232 301 273 250 250 246 257 231 247 241 243 246 215 212 247 258 244 122 225 248 233 245 238
340 339 338 336 336 332 336 334 290 226 271 238 260 267 253 243 192 210 216 220 202 218 228 216 241 238 232 241 233 240 222 234 259 262 188 228 249 248 265 195 215 227 231 243 251
339 337 334 331 327 321 326 304 217 193 210 225 213 246 133 173 108 193 201 209 233 219 233 221 238 235 232 231 252 275 286 294 292 243 218 214 243 261 276 270 221 233 232 225 229
334 335 330 328 317 307 297 240 266 314 286 226 246 259 282 301 221 212 186 200 210 224 219 240 229 250 257 261 260 259 261 274 278 290 286 275 259 256 254 257 259 248 249 243 233
330 332 331 327 320 286 221 232 257 294 281 287 208 224 234 248 249 224 191 207 213 223 233 230 243 232 228 258 265 258 260 270 272 277 269 257 266 262 255 254 256 255 242 243 247
329 331 333 326 306 280 216 235 241 239 274 223 173 209 190 201 241 241 191 221 239 238 236 248 248 259 238 238 265 268 249 253 262 267 267 267 269 258 261 234 234 230 226 231 260
328 330 331 318 292 257 95 127 333 159 276 153 146 135 167 186 128 209 179 213 237 248 275 269 287 305 274 270 268 253 273 281 275 271 273 262 264 264 260 258 251 228 211 199 131
327 328 328 285 234 254 318 285 232 229 251 155 143 182 173 211 189 161 183 208 218 240 242 255 263 274 298 321 318 264 281 273 267 270 260 256 255 260 261 261 259 241 187 186 144
326 328 295 278 293 209 252 227 223 239 236 170 166 154 196 183 184 179 196 202 220 220 238 246 244 245 238 258 269 266 238 272 259 244 252 244 245 251 274 342 321 113 126 112 118
327 306 268 233 266 258 245 222 236 272 58 64 318 246 225 190 209 189 183 213 213 245 269 268 261 236 228 237 244 246 238 235 258 266 281 303 286 280 348 312 329 245 122 122 139
332 296 238 235 237 224 251 227 265 351 18 357 326 255 238 170 345 222 229 281 296 260 268 282 278 291 246 267 280 276 275 286 307 298 285 271 276 283 284 347 214 226 179 141 195
325 295 223 168 166 210 248 240 271 52 360 299 283 338 52 321 275 298 197 291 314 335 277 294 296 296 300 298 282 264 286 304 288 277 263 262 278 296 8 359 348 288 296 169 183
278 243 123 173 184 233 246 293 80 98 342 331 340 319 329 302 228 216 236 308 11 318 306 304 275 271 287 273 271 261 252 249 240 233 257 282 271 336 131 304 331 301 286 231 239
291 247 135 182 236 230 249 309 350 292 21 261 276 280 302 354 304 312 288 310 10 322 316 10 316 272 276 290 286 263 279 241 260 249 253 273 266 308 304 325 296 339 314 279 281
281 298 148 216 248 255 300 223 121 321 336 332 318 51 351 328 317 277 311 35 73 331 23 6 302 287 277 247 251 286 283 267 329 318 254 263 265 298 343 330 313 322 314 313 313
280 269 173 204 267 290 323 273 152 130 287 323 311 324 288 275 233 279 270 170 282 198 102 82 260 249 264 290 302 264 276 289 283 258 275 257 277 280 291 219 257 263 274 283 282
249 7 31 305 62 333 333 320 284 231 92 349 261 216 353 304 299 250 266 285 239 160 174 237 250 262 275 282 284 284 284 269 255 263 261 273 273 279 288 294 281 281 255 229 249
310 349 348 278 320 278 216 229 289 64 293 274 222 308 351 303 286 298 309 309 292 276 188 184 275 266 268 269 267 264 264 267 264 264 257 263 269 274 271 276 261 272 354 317 296
344 343 281 296 257 257 269 45 75 345 280 245 350 288 285 317 333 295 285 274 254 278 288 157 225 277 276 286 298 287 258 251 257 259 265 266 277 298 289 302 17 342 307 305 321